This is the latest recevied weather packets stored in our database for station/object EA1FWM-12. If no packets are shown the sender has not sent any weather packets the latest 10 day(s).
| Time | Temp. | Humidity | Pressure | Rain* | Wind** | Luminosity | Snow |
|---|---|---|---|---|---|---|---|
| 1787729472 | 15.56° C | 82% | 1014 hPa | - | - | - | - |
| 1787728573 | 15.56° C | 82% | 1013.9 hPa | - | - | - | - |
| 1787726773 | 15.56° C | 81% | 1013.7 hPa | - | - | - | - |
| 1787724975 | 15.56° C | 82% | 1013.5 hPa | - | - | - | - |
| 1787724074 | 15.56° C | 82% | 1013.1 hPa | - | - | - | - |
| 1787723176 | 15.56° C | 81% | 1013.5 hPa | - | - | - | - |
| 1787722275 | 15.56° C | 81% | 1013.5 hPa | - | - | - | - |
| 1787721375 | 15° C | 82% | 1013.7 hPa | - | - | - | - |
| 1787720475 | 15° C | 82% | 1013.7 hPa | - | - | - | - |
| 1787719575 | 14.44° C | 83% | 1014 hPa | - | - | - | - |
| 1787718676 | 14.44° C | 84% | 1014 hPa | - | - | - | - |
| 1787717775 | 14.44° C | 84% | 1014.4 hPa | - | - | - | - |
| 1787716875 | 13.89° C | 84% | 1014.7 hPa | - | - | - | - |
| 1787715976 | 13.89° C | 84% | 1015 hPa | - | - | - | - |
| 1787715077 | 14.44° C | 83% | 1015.2 hPa | - | - | - | - |
| 1787714177 | 14.44° C | 83% | 1015.4 hPa | - | - | - | - |
| 1787713277 | 14.44° C | 84% | 1015.6 hPa | - | - | - | - |
| 1787712377 | 14.44° C | 85% | 1015.7 hPa | - | - | - | - |
| 1787711478 | 14.44° C | 85% | 1016.1 hPa | - | - | - | - |
| 1787710578 | 14.44° C | 85% | 1016.1 hPa | - | - | - | - |
| 1787709679 | 14.44° C | 86% | 1016.3 hPa | - | - | - | - |
| 1787708779 | 13.89° C | 88% | 1016.4 hPa | - | - | - | - |
| 1787707879 | 13.33° C | 88% | 1016.5 hPa | - | - | - | - |
| 1787706979 | 12.78° C | 88% | 1016.7 hPa | - | - | - | - |
| 1787706079 | 13.33° C | 87% | 1016.9 hPa | - | - | - | - |
* Rain since midnight (hover to see other rain measurements)
** Current wind speed in m/s (hover to see current wind gust speed)